RH
95 96 93 92 92 93 94 94 94 95 95 95 96 96 96 95 93 90 87 86 85 85 85 85 86 86 87 88 88 89 89 91 93 96 97 95 95 96 99 96 93 91 90 88 82 75 73 73 76 77 72 72 72 71 72 74 76 77 75 77 78 79 78 83 84 83 79 78 81 87 91 91 93 93 93 92 91 90 87 84 81 78 75 74 75 77 78 84 88 89 87 83 82 81 79 82 85 87 90 89 89 91 93
95 95 93 91 90 90 90 91 91 92 93 95 97 98 97 95 93 92 90 89 88 87 85 84 84 85 86 88 88 89 89 90 93 95 97 95 95 96 98 92 88 84 82 82 78 74 71 73 78 80 72 70 69 69 71 74 77 79 78 77 78 78 79 82 82 81 78 75 76 79 84 88 90 91 92 93 94 93 90 85 82 79 76 75 77 80 82 86 87 87 85 84 85 85 82 84 87 91 95 94 93 93 93
97 96 93 91 88 86 85 86 88 90 91 93 95 96 93 92 92 93 93 94 95 94 93 91 89 89 90 90 90 90 89 90 92 95 97 95 95 96 97 94 90 86 82 78 74 71 69 73 78 80 73 70 69 69 70 72 76 80 80 78 78 78 80 80 80 79 77 76 75 74 75 82 84 85 88 91 93 94 92 86 82 80 77 77 79 83 85 88 87 85 86 86 87 88 85 84 86 90 95 96 97 97 98
98 96 91 90 87 83 79 79 82 86 90 92 92 91 89 88 89 91 93 95 96 97 97 94 94 93 92 92 92 91 90 90 92 95 96 95 94 95 96 96 93 88 82 76 71 69 71 75 77 76 73 71 71 72 72 73 75 78 80 79 78 79 84 80 79 79 77 77 76 73 71 76 82 86 87 88 91 92 89 84 83 82 80 78 80 86 91 91 91 92 92 90 91 91 89 85 85 87 92 94 96 97 98
98 95 88 88 87 84 78 77 79 83 88 90 90 89 88 87 88 89 90 93 95 96 94 95 97 96 92 92 92 92 92 92 93 94 95 94 93 94 95 97 93 85 77 72 69 68 75 82 81 77 76 76 75 74 74 74 75 77 78 78 79 80 84 78 77 78 78 79 76 73 71 74 80 85 89 85 85 87 86 84 84 85 83 79 82 88 95 95 94 94 94 94 93 92 91 88 85 85 88 92 93 93 94
96 95 92 89 88 86 81 79 79 82 86 88 89 89 90 89 89 89 89 90 92 92 90 94 96 96 93 92 91 92 93 93 94 94 95 94 94 94 95 96 91 82 72 70 68 69 74 80 82 80 79 76 74 73 74 75 75 76 77 78 79 80 80 75 75 77 79 79 77 74 72 73 75 79 83 84 86 89 87 88 88 88 85 80 82 88 96 97 97 97 95 94 93 92 92 91 87 84 85 90 92 93 92
95 95 96 93 92 90 85 82 82 83 85 86 88 90 92 93 92 91 90 90 91 91 90 92 94 95 94 92 91 91 91 93 94 95 95 95 95 95 94 95 89 79 70 70 70 71 71 78 80 80 79 78 77 76 74 74 74 75 76 77 79 79 78 72 72 76 79 80 77 75 74 75 73 72 73 79 84 87 88 90 91 89 86 81 84 90 96 97 97 95 92 91 90 90 89 91 89 86 83 85 89 92 91
96 96 95 95 96 95 92 88 85 85 85 85 85 87 91 93 94 93 91 91 92 93 96 93 93 93 95 94 93 92 92 93 94 95 96 97 97 97 96 94 87 78 71 72 73 73 72 83 84 81 80 79 76 72 69 71 72 73 74 76 79 80 76 69 69 73 78 79 77 75 76 79 78 75 73 77 83 87 88 89 89 87 84 82 85 90 95 97 96 93 90 87 84 81 80 86 89 88 84 82 84 86 89
93 92 92 96 98 98 95 92 89 87 86 84 83 84 86 89 91 91 91 92 94 96 97 94 92 92 92 93 93 93 93 93 95 97 97 98 99 99 99 95 87 78 73 73 75 75 75 83 85 83 81 78 73 67 64 67 69 71 74 76 80 80 75 66 66 71 76 78 77 77 79 81 82 81 78 80 82 84 84 83 83 83 81 85 88 91 95 96 94 91 87 84 79 75 73 82 88 91 88 84 82 83 88
91 91 95 99 100 99 97 94 94 94 92 85 82 81 82 84 86 87 88 92 95 96 95 96 95 93 91 90 90 91 92 95 97 98 97 98 99 99 98 94 87 80 76 76 76 76 78 84 85 84 81 76 71 65 61 64 68 72 75 76 77 75 66 61 62 68 74 76 78 79 81 83 84 83 81 77 76 75 75 77 79 82 80 86 87 89 93 93 92 90 86 81 76 73 72 78 85 91 92 87 83 81 85
93 95 99 99 99 98 97 96 97 97 94 88 84 81 80 81 83 85 86 89 94 98 98 99 98 96 94 92 90 90 91 95 95 95 95 97 99 100 99 95 91 87 86 83 79 78 79 85 85 83 80 74 68 63 62 64 69 74 76 74 68 61 54 54 58 65 72 77 80 82 83 84 85 85 83 78 75 74 73 75 77 80 80 83 86 88 90 91 90 88 84 80 77 74 72 75 81 87 91 87 83 80 83
92 94 95 96 95 93 93 97 99 98 95 91 87 84 80 78 79 82 85 86 90 94 97 97 97 98 98 95 93 92 93 96 96 95 95 97 99 100 100 98 94 92 94 91 86 83 83 85 85 83 81 73 66 62 63 65 69 74 76 71 60 51 48 51 56 63 70 78 82 83 83 83 85 86 85 82 79 77 77 78 79 80 80 84 85 85 85 86 86 86 84 82 77 72 68 75 80 85 91 86 82 80 83
86 87 87 90 92 92 92 95 98 98 98 93 90 87 84 79 77 78 81 84 87 89 92 93 94 96 97 96 95 94 95 98 97 96 97 97 99 100 100 99 96 93 94 96 93 90 89 87 85 83 81 72 64 60 60 65 71 75 76 66 56 50 51 54 59 65 70 79 83 84 83 83 83 84 85 83 82 82 83 84 84 83 82 84 82 79 78 80 82 83 85 84 76 66 59 66 76 85 90 86 83 82 84
82 82 81 85 90 93 94 94 94 95 97 97 94 92 90 87 84 82 81 83 85 86 89 90 92 93 93 94 95 95 95 97 96 95 96 96 97 99 99 100 98 96 95 97 98 96 93 90 87 85 82 72 63 56 52 59 67 73 73 60 54 54 57 60 64 68 71 79 82 83 82 81 79 80 85 84 84 85 86 87 87 87 86 84 82 80 78 78 79 81 84 84 75 64 59 65 74 82 85 86 86 86 86
83 81 80 83 88 92 94 93 91 91 92 94 96 97 97 96 93 90 87 85 85 86 87 89 90 91 91 91 92 93 95 95 94 93 93 94 95 96 97 98 99 99 98 99 98 96 90 88 87 85 81 71 62 55 50 54 61 65 61 56 57 60 64 67 69 71 72 78 81 82 80 78 76 77 82 83 85 86 86 86 87 87 87 86 84 83 81 80 79 80 82 82 75 66 61 67 74 80 83 85 87 89 90
87 84 83 85 89 91 90 87 88 89 90 90 93 97 100 99 98 95 93 90 88 87 87 88 89 89 90 90 89 90 91 92 91 90 90 91 93 94 95 97 98 99 99 99 99 96 88 84 84 84 81 71 62 54 51 56 59 59 54 57 60 65 70 72 73 73 73 77 80 80 78 76 72 72 78 81 83 84 83 84 85 86 85 84 84 83 83 82 81 80 80 81 76 69 60 66 72 78 80 82 85 88 91
90 88 87 90 90 89 86 83 83 85 88 87 88 92 98 99 100 99 98 96 94 92 90 88 88 89 90 90 89 88 88 89 88 87 85 87 89 91 93 96 97 97 98 99 99 97 92 85 84 85 82 74 65 58 52 56 56 54 51 57 64 70 74 76 76 76 75 77 79 80 79 78 73 71 79 80 80 81 82 84 85 84 82 81 81 82 83 83 82 81 80 81 78 73 63 63 68 73 77 78 80 84 88
90 92 90 89 90 91 91 86 83 83 85 86 86 88 93 96 99 100 100 100 99 97 93 89 87 88 90 90 89 88 89 86 85 85 86 86 87 88 90 94 96 96 95 97 98 98 96 91 88 87 83 77 70 64 57 56 51 47 48 55 63 70 74 76 77 78 77 79 79 80 82 80 78 77 80 82 82 82 80 80 79 79 77 77 78 79 80 81 82 83 83 82 81 78 71 64 63 67 71 74 77 79 82
85 88 86 84 84 87 93 92 89 85 83 85 86 88 89 92 95 97 98 99 100 98 95 89 87 87 89 89 88 87 88 82 80 80 85 89 90 90 90 93 95 96 95 96 97 99 99 96 92 88 82 77 73 68 63 55 48 44 46 52 59 64 69 72 75 77 77 77 77 77 80 78 77 77 77 78 77 75 71 70 71 72 73 74 74 75 77 78 80 82 83 83 83 82 79 71 67 65 67 71 73 76 77
77 78 77 76 76 80 85 90 91 89 83 81 82 85 87 89 91 93 94 97 98 98 95 90 86 85 86 87 87 86 82 80 78 79 81 86 91 93 94 94 95 96 96 96 98 99 100 98 95 89 83 78 74 70 66 56 49 46 48 51 55 59 62 66 69 72 73 74 75 76 79 79 79 78 79 77 73 68 61 60 62 65 68 69 70 71 76 76 77 78 81 82 82 82 82 79 75 70 67 68 69 72 74
79 79 80 78 80 82 81 83 86 87 84 79 78 80 84 87 90 92 93 94 95 95 93 89 86 85 86 86 85 82 78 76 77 79 79 83 88 92 97 97 96 96 96 97 98 100 100 100 97 93 87 81 76 72 69 62 56 52 53 54 56 58 59 61 63 65 66 69 73 78 80 81 81 82 84 83 77 69 61 59 60 62 64 64 67 70 73 73 73 75 78 81 82 81 81 81 80 77 73 70 68 68 70
81 81 82 79 80 82 82 79 80 81 81 80 80 80 81 83 85 88 91 91 91 90 89 86 83 82 83 79 76 74 73 72 74 77 79 80 84 90 99 99 99 98 98 98 98 99 100 100 99 96 90 83 78 75 73 69 64 61 62 62 61 61 61 60 60 60 60 63 69 75 80 81 82 82 84 85 82 77 70 68 68 68 67 64 64 65 64 64 66 69 73 78 81 82 82 82 82 81 80 76 71 68 68
81 80 80 77 77 78 78 76 76 76 78 80 82 82 78 76 77 78 82 83 84 83 81 79 76 75 75 71 69 68 68 67 70 75 78 78 80 84 94 98 100 100 99 98 98 97 97 98 99 98 94 86 80 77 76 74 72 70 70 69 68 66 63 60 58 57 57 60 65 71 79 78 79 81 82 82 84 84 81 79 77 76 75 70 66 62 59 58 58 60 65 73 78 82 82 85 86 85 83 81 77 72 68
84 84 84 82 81 79 77 75 74 74 75 76 77 78 78 76 73 72 72 73 74 74 73 72 70 69 71 68 67 66 65 65 66 70 75 79 80 82 85 94 99 100 100 99 98 96 94 95 98 99 98 91 85 81 79 77 76 75 75 73 70 66 62 58 55 54 54 58 61 66 73 75 77 79 80 81 81 82 81 80 80 80 80 77 72 68 63 62 61 60 61 67 72 76 79 83 86 87 87 85 82 78 73
91 91 91 90 87 83 80 79 79 80 82 81 81 81 79 75 73 71 71 70 68 68 67 67 66 66 68 67 66 65 65 66 67 68 74 77 80 83 85 91 97 100 100 100 99 98 96 94 95 97 98 95 89 83 81 80 78 77 76 72 68 63 58 53 50 49 49 52 56 60 64 68 73 78 79 79 79 78 77 77 78 80 83 82 80 77 75 74 73 72 72 73 74 75 74 75 78 82 87 88 87 84 79
94 94 92 92 90 88 87 86 85 84 84 86 85 82 81 75 73 73 76 75 74 72 72 70 68 67 67 67 67 66 66 67 67 68 73 76 82 87 89 92 96 100 100 100 100 99 98 95 93 93 97 97 92 85 82 81 79 76 74 71 68 63 58 52 48 45 43 45 48 50 53 57 63 70 75 82 82 80 78 76 77 79 82 83 85 87 86 86 85 84 81 80 78 75 70 68 70 75 83 87 89 88 85
93 93 90 89 88 89 90 89 87 87 92 94 90 83 78 76 74 74 76 77 78 77 76 76 75 74 72 72 73 75 76 76 77 79 82 84 88 91 92 94 97 100 100 100 100 99 99 94 89 89 97 98 93 88 85 82 79 77 75 73 71 68 64 58 53 48 43 42 42 42 43 46 51 57 65 75 81 83 80 81 78 76 76 78 81 83 84 83 81 79 79 80 80 76 69 65 65 70 79 86 89 90 89
91 91 88 86 86 87 87 89 89 88 89 89 91 91 82 81 77 73 72 74 75 76 75 73 73 74 74 76 81 84 82 83 84 85 86 88 90 92 95 95 98 100 100 100 100 99 99 92 86 85 96 98 96 92 88 85 82 79 79 78 77 75 72 67 62 57 50 45 42 40 40 41 43 48 54 62 72 81 82 83 81 76 72 72 73 75 76 77 78 80 82 84 84 80 72 66 66 71 80 86 89 91 91
89 90 90 87 86 87 87 86 86 87 87 86 89 91 89 87 82 78 76 75 74 74 76 76 76 77 77 82 85 85 81 82 83 84 85 86 88 92 96 98 99 99 99 99 99 99 98 92 85 85 95 99 98 95 91 88 86 84 85 85 84 81 78 75 70 65 59 53 48 45 43 42 42 43 46 52 61 72 82 84 84 80 73 70 69 72 79 82 84 85 84 82 80 77 72 67 67 71 80 85 89 91 91
85 87 89 87 85 84 85 85 86 87 86 87 86 86 89 91 90 88 83 79 76 74 73 76 80 82 82 85 86 84 82 80 82 84 82 83 88 94 98 99 99 99 99 98 99 100 99 95 90 89 96 99 100 99 96 93 91 90 91 91 90 87 85 80 75 70 66 60 56 53 51 49 47 46 45 48 56 66 76 83 84 81 76 78 82 85 85 84 82 80 78 77 75 73 69 65 65 67 74 83 89 93 93
80 82 85 86 85 83 81 82 83 85 86 89 89 89 93 94 93 88 81 83 81 77 72 73 78 83 86 84 84 85 85 84 85 85 84 87 92 96 98 98 99 100 99 98 98 99 99 98 95 94 96 99 100 100 100 97 96 94 94 93 93 91 89 84 79 74 70 66 62 59 57 56 54 51 49 51 58 68 75 82 82 79 77 80 82 83 81 81 81 80 80 78 76 73 71 68 65 64 68 78 87 93 94
85 84 85 86 86 84 79 80 82 85 89 92 92 92 92 92 90 89 88 92 91 86 79 85 85 83 82 79 79 80 82 85 86 88 92 93 95 98 98 98 98 99 99 99 98 98 98 98 97 95 94 97 99 99 100 99 96 93 93 92 92 92 91 86 81 76 73 70 68 65 62 60 59 56 53 53 60 71 79 79 81 81 79 78 76 76 78 82 84 85 84 81 79 78 78 75 70 66 65 73 81 88 93
92 89 87 87 87 87 85 84 87 90 92 93 94 95 94 93 93 94 96 90 88 89 90 93 91 87 81 82 85 89 93 95 92 89 90 94 98 100 100 100 99 98 99 98 98 97 97 96 95 93 91 94 97 99 100 100 97 94 93 92 93 93 91 87 82 78 75 74 73 71 68 66 63 60 58 55 60 68 77 79 79 80 83 80 77 76 78 81 84 85 84 83 81 81 82 81 76 72 71 77 81 85 91
93 92 90 89 89 91 92 91 91 92 92 94 96 97 95 93 93 95 98 90 87 85 83 84 87 91 93 94 96 99 99 99 97 94 93 97 99 100 100 100 100 99 99 98 97 98 99 97 94 91 88 92 95 97 99 99 98 96 94 94 94 92 91 87 83 80 77 76 75 74 72 70 68 66 64 60 59 62 70 79 82 83 83 82 81 80 79 83 84 84 84 84 83 82 82 82 78 74 72 76 81 85 90
93 92 91 90 90 91 92 93 94 95 93 94 94 94 94 93 93 94 97 91 89 88 85 82 81 85 93 96 99 100 99 99 99 100 100 100 99 98 99 99 99 99 98 97 97 98 99 98 97 94 90 91 94 97 100 99 98 97 96 96 94 92 89 86 83 80 78 77 76 75 74 72 71 70 69 66 62 59 60 66 71 75 77 80 80 79 79 80 81 83 85 85 84 83 83 82 78 71 64 64 68 75 83
92 90 90 90 91 92 93 95 96 97 98 97 96 95 95 94 94 94 95 98 97 93 89 86 84 83 89 92 95 97 97 96 98 100 100 100 98 96 96 98 98 98 97 97 95 94 96 98 98 98 97 97 98 99 100 99 98 97 95 95 93 91 88 86 83 81 79 78 77 76 75 74 73 72 71 69 66 63 59 58 59 62 66 73 76 77 77 77 80 84 87 87 86 85 84 84 80 73 64 59 59 64 71
90 90 91 92 94 95 97 98 99 99 99 98 97 97 98 96 96 96 99 100 100 100 99 95 91 87 87 89 91 93 95 93 95 97 100 100 99 98 96 95 95 96 97 96 94 93 94 97 99 99 99 99 98 97 97 96 95 94 93 93 92 91 88 86 84 82 80 80 79 78 77 76 75 74 72 70 69 68 65 62 59 57 58 61 65 68 70 73 78 83 87 87 87 87 86 85 83 79 74 66 61 59 61
88 88 92 94 94 96 98 98 98 98 98 99 98 96 95 95 97 99 100 100 100 100 100 100 97 93 88 87 88 90 94 93 92 94 97 99 99 100 99 96 94 93 94 94 95 95 96 97 98 98 97 94 93 92 93 93 92 92 91 91 90 90 89 87 86 85 83 81 80 79 77 76 75 74 72 71 71 70 69 67 65 62 59 59 59 61 64 68 73 78 84 86 87 87 87 85 83 82 80 73 66 61 59
86 86 87 90 92 94 98 97 98 98 98 99 99 97 94 94 95 97 98 99 99 100 100 99 99 97 92 87 86 88 93 92 92 93 94 96 97 97 98 97 97 96 95 95 96 98 99 97 96 95 93 89 87 86 88 89 90 90 89 88 88 88 88 88 87 87 86 84 81 78 76 75 75 74 72 72 73 73 73 71 69 67 64 62 61 61 61 63 65 68 73 79 83 85 86 85 84 83 81 78 74 68 63
86 87 87 88 90 93 97 96 96 97 99 99 99 98 96 95 95 96 95 96 97 98 98 99 99 99 96 90 87 87 89 90 91 92 93 93 91 91 93 97 98 98 97 97 98 99 100 99 97 94 89 85 83 82 82 85 86 87 86 87 86 86 86 85 85 85 86 86 84 80 77 75 74 73 72 73 75 77 78 77 74 71 69 66 64 62 61 61 61 61 62 67 72 77 82 82 83 85 84 83 82 78 71
91 93 91 91 93 95 95 95 94 95 97 98 97 96 95 95 95 94 91 92 93 93 94 97 99 99 99 94 90 88 87 87 89 91 91 90 87 87 89 93 96 97 97 98 98 99 99 99 98 95 90 87 85 83 81 82 83 83 84 85 84 84 83 84 83 83 83 85 85 84 81 77 75 73 72 73 76 79 81 80 78 75 73 70 68 65 63 62 62 61 60 60 62 66 71 78 83 85 85 86 86 85 79
96 98 96 96 96 95 92 93 93 95 96 96 95 94 93 93 94 93 89 90 90 90 89 93 96 98 98 96 93 91 87 86 87 88 89 88 87 87 88 92 94 95 95 96 97 97 97 96 94 93 91 90 88 85 83 82 82 82 83 83 82 82 83 83 82 82 82 82 83 84 85 81 78 75 73 74 76 78 80 81 80 78 76 74 71 68 65 65 64 64 63 61 60 60 63 73 81 85 87 88 88 87 84
94 96 98 98 94 91 89 90 91 93 93 96 95 93 91 93 94 95 94 94 93 92 90 91 92 94 94 95 94 92 88 86 87 88 90 90 89 89 91 93 94 94 94 94 94 95 93 92 91 91 92 91 88 85 83 82 82 82 83 82 81 82 83 82 82 82 82 83 83 84 86 85 82 78 76 75 76 78 79 80 79 78 77 76 73 71 69 68 68 68 66 64 62 61 61 68 76 84 88 89 90 89 87
90 90 93 93 91 87 85 85 85 86 91 95 95 93 91 94 95 97 99 98 97 96 96 94 94 93 93 92 91 89 87 85 86 87 90 92 91 91 92 93 93 93 93 94 94 94 92 92 91 91 93 92 88 84 81 81 81 81 82 82 82 82 83 81 80 81 82 82 83 84 87 88 87 84 80 78 77 78 79 80 80 79 78 77 75 74 73 72 72 71 70 68 66 64 62 64 69 76 83 87 90 91 90
86 85 85 87 87 87 85 86 85 84 89 91 91 89 90 92 94 95 97 98 99 99 99 98 98 96 95 93 89 86 84 83 84 85 88 89 90 90 91 91 91 92 92 93 94 93 91 90 90 90 91 90 86 83 80 79 80 81 83 82 82 82 84 82 80 80 80 80 82 85 88 89 90 89 86 83 81 80 80 80 80 80 79 78 77 76 75 75 75 74 73 71 70 68 65 64 65 68 74 80 85 88 90
83 81 80 80 82 83 82 85 86 86 85 86 86 86 87 90 92 94 96 97 98 98 100 99 99 99 98 95 91 87 85 83 83 84 85 85 87 88 87 88 88 89 89 91 92 91 90 88 88 88 88 86 84 82 80 79 80 81 81 80 80 82 86 86 85 84 84 83 84 86 88 89 89 88 87 85 83 82 82 81 81 81 81 80 79 78 77 76 76 75 74 74 74 73 70 66 65 65 68 72 76 81 85
83 80 79 77 76 77 79 80 83 84 81 81 81 82 83 87 90 93 96 95 94 95 98 99 100 100 99 98 94 91 88 86 85 84 84 84 85 85 83 84 86 87 87 87 88 89 90 89 87 85 84 82 81 79 78 79 80 80 78 77 79 82 86 89 89 89 88 87 87 87 88 88 87 86 83 81 80 80 81 82 82 81 81 81 80 78 77 76 75 73 73 74 75 76 74 70 67 65 65 67 70 73 76
84 81 78 76 75 74 75 76 77 78 76 76 75 75 79 86 89 92 96 92 91 92 94 97 99 100 100 99 98 96 92 89 88 87 86 86 86 85 84 84 87 89 88 86 86 87 88 88 86 84 82 80 78 77 76 79 80 79 78 77 78 80 83 86 88 89 88 86 86 87 87 87 86 84 81 79 79 79 79 81 82 82 81 80 79 77 76 74 73 72 72 74 76 77 76 72 68 66 65 66 67 68 69
83 81 79 76 75 73 71 72 73 72 70 73 72 72 75 82 86 88 91 89 90 90 89 90 93 96 98 98 97 96 95 93 92 91 89 87 86 85 86 87 89 90 88 87 87 88 87 86 86 85 83 83 82 80 79 80 80 80 79 78 77 77 78 80 83 84 83 83 83 84 82 83 85 85 83 81 81 81 80 81 83 84 84 81 78 76 73 72 71 71 72 75 77 78 77 73 69 66 65 65 66 67 67
81 81 81 78 75 73 71 72 71 70 69 69 68 68 72 78 82 85 84 86 89 90 89 90 92 93 93 92 93 94 96 96 94 91 91 87 82 79 82 83 85 87 86 89 92 93 91 89 87 86 85 87 88 88 87 87 86 84 82 82 80 78 76 76 78 80 81 82 80 77 78 81 84 85 84 83 83 82 81 82 84 85 86 85 83 81 79 76 74 73 74 76 78 80 79 76 72 68 66 66 67 67 68
84 83 81 78 75 74 72 72 72 72 71 67 65 65 65 70 74 76 76 77 82 85 84 81 84 86 86 84 87 93 97 98 93 87 85 81 77 74 75 75 77 80 82 86 90 93 92 90 88 86 84 87 89 91 90 90 89 88 85 85 84 81 77 77 78 79 81 83 83 83 83 84 84 84 84 84 84 83 83 83 84 85 86 86 87 87 88 87 85 82 79 80 81 82 82 80 77 74 71 70 69 69 69
87 87 83 80 78 77 77 73 73 75 73 70 66 64 63 63 65 67 68 70 75 77 75 70 72 78 85 86 90 95 99 99 97 91 82 77 76 76 74 72 74 77 79 79 82 85 86 84 83 83 81 81 83 85 86 87 87 86 85 83 81 79 78 80 81 81 80 81 81 81 83 83 83 83 82 82 81 82 83 83 83 83 84 86 87 88 89 89 88 86 83 82 82 82 82 82 80 78 76 75 73 73 72
84 85 86 83 82 81 82 79 79 80 80 73 67 63 62 62 63 64 65 68 69 69 68 68 68 70 79 84 88 92 98 99 99 97 94 82 79 81 82 78 75 74 75 75 76 77 76 74 74 73 73 73 73 75 77 80 80 81 81 78 77 77 78 79 78 77 76 77 77 77 79 81 82 82 82 81 81 81 82 81 81 81 82 83 84 86 88 89 86 81 78 78 78 79 80 80 80 79 78 77 76 75 74
74 78 81 79 79 81 82 82 83 83 82 77 70 65 62 60 59 59 60 62 66 69 65 72 72 69 65 72 76 83 94 98 99 98 97 88 81 78 78 78 76 75 73 73 72 70 68 67 65 65 69 71 71 71 72 72 73 75 77 75 75 76 77 76 76 75 73 72 74 75 76 77 79 81 81 80 79 79 79 79 78 78 79 80 80 80 80 79 74 68 68 70 71 73 74 76 77 78 78 78 77 78 79
64 71 74 73 75 77 80 82 84 86 84 82 76 70 63 57 54 53 54 58 64 67 66 67 67 64 58 61 66 72 82 94 98 98 100 95 87 78 70 71 73 75 75 73 69 65 61 63 61 62 68 73 74 73 73 73 74 75 76 73 71 70 71 72 72 72 71 72 73 74 74 76 77 79 80 80 79 79 78 77 77 77 77 78 77 76 75 68 65 65 68 69 68 66 66 68 70 73 76 77 78 80 85
56 65 72 73 75 76 78 79 80 82 82 85 82 75 67 62 59 58 56 58 60 63 65 64 64 63 60 57 59 65 75 86 94 99 99 99 96 91 85 75 70 68 68 67 64 61 63 60 59 60 66 73 74 73 72 74 75 75 75 73 72 71 71 71 72 73 73 73 74 75 75 76 76 76 78 78 78 79 80 79 78 77 77 77 77 77 77 76 76 75 73 71 67 63 60 60 61 64 68 72 75 78 80
47 53 59 62 66 73 81 79 81 82 82 85 84 80 76 72 69 66 62 60 59 59 59 58 59 62 65 61 59 60 65 72 84 94 97 96 94 93 94 85 77 71 67 64 62 62 66 63 62 63 66 73 75 74 74 74 74 75 75 75 74 74 74 75 75 74 74 73 73 73 74 75 74 73 74 74 75 76 78 80 80 80 79 79 78 78 78 79 78 77 76 70 67 64 57 54 53 56 59 64 69 73 76
39 42 42 42 47 57 73 81 82 82 83 83 83 83 83 81 76 71 66 63 61 58 51 54 58 61 66 67 66 62 59 62 70 81 93 92 91 91 92 89 88 87 84 81 74 66 64 64 63 61 64 68 72 75 77 75 74 74 74 74 75 75 76 76 75 74 74 73 73 73 74 73 73 73 73 72 72 73 73 75 77 78 79 79 79 78 78 78 77 76 76 72 68 63 57 55 53 54 55 59 63 68 73
32 33 32 32 34 42 58 68 75 78 80 84 85 83 81 81 79 76 71 68 64 59 47 48 53 58 63 70 68 63 57 59 66 76 86 87 89 91 93 86 82 81 82 83 80 73 63 60 59 61 64 63 64 68 73 72 71 70 68 69 71 72 71 74 75 74 74 73 73 73 71 71 71 72 70 70 69 69 69 70 72 74 76 76 77 77 78 77 77 77 76 72 69 67 64 61 59 57 57 59 61 65 69
31 30 30 30 32 36 44 53 61 70 78 86 85 81 78 80 80 77 74 73 70 64 53 53 54 56 60 67 68 65 59 60 66 72 76 76 77 79 81 78 76 75 75 73 74 74 69 60 58 60 61 58 57 58 62 65 66 65 61 60 61 63 63 66 69 71 72 70 69 69 67 67 68 68 68 67 67 67 68 69 70 72 74 75 75 76 76 77 79 81 82 82 82 80 76 70 67 64 62 62 63 65 67
31 31 30 30 31 32 35 40 48 57 67 76 81 81 79 83 83 81 79 78 77 74 69 65 60 58 63 66 68 68 63 64 67 71 74 66 65 69 77 76 74 73 75 70 69 69 66 63 63 62 60 58 55 51 50 54 59 60 58 58 57 57 58 59 61 63 63 63 63 63 63 65 65 65 65 65 65 65 67 68 69 71 73 73 74 74 75 75 76 77 79 81 85 87 83 77 73 70 67 66 66 66 68
Wind_Speed
8 7 6 6 6 7 7 7 8 9 10 10 9 8 7 8 9 10 10 10 10 10 10 10 10 10 10 11 11 12 13 13 12 12 13 14 15 14 10 7 7 8 8 10 12 13 14 15 13 11 10 9 9 9 8 8 8 7 7 6 6 6 6 8 9 10 8 7 6 6 6 7 8 8 8 8 8 8 8 8 8 8 7 6 4 2 1 1 3 5 6 6 6 5 4 2 1 3 3 4 6 7 8
9 7 7 7 7 7 7 7 8 8 9 8 7 6 6 8 9 10 10 10 10 10 10 10 10 10 10 11 11 12 13 13 13 14 15 15 16 14 9 6 5 6 8 11 12 13 14 14 13 11 11 10 9 9 9 9 8 8 7 6 6 6 6 9 11 10 8 7 6 6 6 6 6 7 7 8 8 8 8 8 8 7 7 5 3 2 1 2 3 4 6 6 6 5 4 2 1 1 2 3 4 6 7
8 7 7 8 7 7 7 8 8 8 8 7 6 6 7 8 9 10 10 10 10 10 10 10 10 10 10 11 11 12 13 13 14 15 16 16 17 15 12 9 7 8 10 12 13 14 14 13 12 12 11 10 10 10 9 9 9 9 8 7 7 7 7 10 12 10 9 7 6 6 6 6 6 6 7 8 8 8 8 9 8 7 7 5 3 2 2 3 3 4 5 6 6 5 4 3 2 1 1 2 3 4 6
8 7 9 9 8 8 8 9 9 9 8 8 8 8 8 9 9 10 11 11 11 11 12 12 11 10 11 11 11 12 13 13 14 15 16 17 17 17 15 12 10 10 12 13 14 14 14 13 12 12 11 10 10 10 10 9 9 9 9 8 8 8 9 11 12 11 9 7 7 6 6 6 5 5 6 7 8 8 9 9 8 8 7 5 3 3 3 4 4 5 5 5 6 6 5 3 2 2 2 2 3 4 6
9 9 10 10 10 9 9 9 9 10 9 9 8 8 8 9 10 11 12 12 12 13 13 12 11 10 10 11 11 12 13 13 14 15 16 17 17 16 15 13 12 12 13 14 15 14 12 11 11 11 11 10 10 10 10 10 9 9 9 9 8 8 11 12 12 11 10 8 7 6 6 5 5 5 6 6 8 9 9 9 8 8 8 6 4 4 4 5 5 5 5 6 6 6 5 5 3 2 2 2 3 4 5
10 10 10 11 11 11 10 10 10 10 10 10 9 8 8 9 10 11 12 13 13 13 13 11 9 9 9 10 11 11 12 12 13 14 16 16 16 15 14 13 13 13 14 15 15 14 12 11 10 10 10 10 9 9 9 9 9 9 9 9 8 9 12 12 12 11 10 9 8 7 5 5 5 5 6 6 7 8 8 8 8 9 9 7 5 5 5 6 6 6 6 6 7 7 7 7 5 4 2 3 3 4 5
11 11 11 12 12 12 11 11 11 11 10 10 9 8 8 8 9 10 11 12 12 12 12 10 8 8 8 9 10 11 11 11 12 14 15 16 15 15 15 14 14 14 14 15 15 14 12 11 10 9 9 9 9 9 8 9 9 9 9 9 9 10 12 12 12 11 10 9 8 7 5 5 4 5 6 6 7 7 8 8 8 9 9 8 6 5 6 6 6 6 6 6 7 7 8 8 7 5 3 3 3 4 5
12 13 14 14 13 12 12 13 13 12 11 10 9 8 8 9 9 10 11 11 11 10 10 10 9 8 8 9 10 10 11 11 12 13 15 15 15 15 15 14 13 13 14 15 15 14 12 11 10 9 8 8 9 9 9 9 9 9 9 9 8 9 12 12 12 11 10 9 8 7 6 5 4 5 5 6 7 7 7 8 9 9 9 8 7 6 7 7 7 7 7 7 6 7 7 7 7 6 4 3 3 4 5
13 14 15 15 14 12 12 14 14 13 11 11 10 10 9 9 10 11 11 11 10 9 9 9 9 9 10 10 10 10 10 10 11 12 14 14 14 14 13 13 13 13 14 15 15 14 12 11 10 10 9 9 9 9 9 8 8 9 9 8 8 9 12 12 11 11 10 9 8 7 6 5 5 5 6 6 7 7 7 8 9 9 9 8 7 8 8 8 8 8 8 8 7 7 6 6 6 6 4 3 3 4 4
14 15 14 11 9 10 13 14 14 12 11 12 12 12 11 11 11 11 11 11 10 9 8 8 9 10 10 10 10 10 10 10 11 12 13 14 14 13 13 12 13 13 14 15 15 14 13 12 11 10 9 9 9 9 9 8 8 8 8 8 9 11 12 11 10 10 10 10 9 8 7 6 6 6 6 6 7 7 7 8 8 8 8 8 8 9 9 9 9 9 9 8 8 8 7 6 5 5 5 4 4 4 4
15 16 14 10 8 9 13 15 14 12 11 12 13 13 13 12 12 12 12 12 11 9 8 7 8 9 10 10 10 10 10 11 11 12 12 14 15 14 12 13 13 12 13 14 15 14 13 13 12 11 10 10 9 9 9 8 7 7 7 8 11 12 11 10 9 10 10 10 9 8 8 7 6 6 7 7 7 7 7 7 8 8 8 8 9 10 10 10 9 9 9 9 9 9 8 6 5 5 5 5 5 4 4
16 16 16 15 13 13 14 14 12 11 11 12 13 14 14 14 14 13 13 13 12 11 9 9 9 9 9 10 10 10 9 10 11 11 11 13 14 15 14 13 13 13 13 14 15 15 14 14 13 11 11 10 10 9 8 8 7 6 6 9 10 10 9 8 9 9 10 10 9 9 8 7 7 7 7 7 7 7 7 7 8 8 8 8 10 11 11 11 10 10 10 9 9 9 8 7 6 6 6 6 5 4 4
17 17 17 17 16 16 16 15 12 10 11 12 13 14 15 15 15 14 14 14 14 13 12 12 11 10 10 10 10 10 10 10 11 10 10 11 12 13 14 15 15 15 14 14 14 15 15 14 13 12 10 11 10 10 9 8 7 6 7 9 9 7 7 7 8 9 9 10 10 10 9 8 7 7 7 8 8 7 7 7 7 8 8 9 10 11 11 11 11 11 10 10 10 9 8 6 5 5 6 6 5 4 4
17 18 18 18 17 16 16 17 17 15 13 12 12 13 14 15 15 15 14 14 14 14 14 14 13 12 12 11 11 11 11 11 11 10 10 10 10 11 12 14 16 16 15 14 13 14 14 13 12 11 10 11 11 11 10 9 8 8 9 9 7 6 6 7 7 8 9 10 10 10 9 8 7 7 7 8 8 8 7 8 8 9 9 10 10 10 10 10 11 11 10 10 10 9 8 6 5 5 5 5 5 5 4
18 19 19 19 17 16 16 17 18 18 18 15 13 12 12 13 14 15 14 14 15 15 15 15 15 14 13 13 12 12 12 12 12 11 11 11 11 12 12 13 14 16 16 15 13 12 12 12 11 11 11 12 12 11 11 10 9 9 10 8 7 7 7 7 7 8 9 10 10 10 10 9 8 7 7 8 8 8 8 8 9 9 10 10 10 10 10 10 10 10 10 9 9 9 8 6 4 4 5 5 5 4 4
17 19 19 18 17 16 17 18 18 18 18 18 16 13 10 10 11 12 13 14 14 14 15 15 15 15 15 14 14 13 13 12 12 12 12 12 12 12 12 13 13 14 16 16 14 12 12 12 11 11 12 12 12 12 11 10 10 10 10 9 8 8 8 8 8 8 9 10 10 11 11 10 8 7 7 8 8 7 8 8 9 9 10 10 10 10 10 10 10 10 9 9 9 9 8 6 5 5 5 5 5 5 4
16 17 18 18 17 16 17 18 19 19 18 19 20 17 13 9 7 8 10 11 12 13 14 15 15 16 15 15 14 14 13 12 12 13 13 13 13 13 12 12 12 13 15 17 16 14 13 13 12 11 11 11 11 11 11 10 10 11 10 10 10 10 9 9 9 9 10 10 11 11 11 11 9 8 7 7 8 8 8 8 8 9 9 10 10 10 10 10 10 10 9 9 8 8 8 6 5 5 6 6 6 6 5
13 16 17 17 17 16 16 18 19 19 19 19 20 21 19 14 10 8 8 9 10 11 13 14 15 15 15 15 15 14 12 12 12 12 13 13 13 13 12 12 12 13 14 17 17 15 13 13 13 12 11 11 10 10 11 11 12 12 11 11 11 11 11 11 10 10 11 11 11 11 11 10 10 8 8 8 8 8 8 8 8 8 9 9 9 9 9 10 10 10 10 9 9 8 7 7 6 6 6 6 6 6 6
15 16 17 18 18 18 18 18 18 19 20 20 21 21 22 21 18 14 12 11 11 12 14 15 15 15 15 15 15 14 12 12 11 11 10 11 12 13 12 12 12 13 14 16 17 16 14 15 15 15 14 12 10 10 11 13 14 13 12 12 12 12 12 12 12 12 12 11 10 10 9 9 8 8 8 8 8 8 8 8 8 8 8 8 8 8 9 9 9 9 10 10 10 9 8 7 7 7 7 7 7 7 7
17 17 17 17 17 19 20 20 19 19 21 22 22 22 23 23 22 20 18 16 14 14 15 15 16 15 15 15 15 14 13 12 12 11 10 10 10 11 12 13 13 13 13 15 16 16 15 17 18 17 15 13 11 10 11 14 14 13 13 13 13 13 13 14 14 13 13 12 10 9 8 7 6 6 7 8 8 9 9 8 8 8 8 8 8 8 8 9 9 9 10 11 11 11 10 9 8 8 8 8 8 8 8
13 13 12 12 13 16 19 20 19 19 20 22 23 23 22 20 20 20 20 19 17 16 16 16 16 15 14 14 14 14 13 13 12 12 12 10 9 9 11 12 13 13 13 14 15 15 15 16 16 15 13 11 10 10 11 13 14 14 13 13 14 14 14 15 15 15 14 13 11 9 8 7 6 6 7 8 9 9 9 9 9 8 8 8 8 8 8 8 9 9 10 11 12 12 12 11 10 10 9 9 9 9 9
10 10 10 10 11 12 15 15 15 15 16 17 19 19 19 17 17 16 17 17 17 16 16 16 16 15 13 13 14 14 14 13 12 12 13 13 12 11 10 11 12 13 14 14 16 16 16 13 12 11 10 10 10 9 9 12 14 14 13 13 14 14 14 15 15 15 14 14 12 11 9 8 7 8 8 8 9 9 10 10 9 9 8 8 8 8 8 8 9 9 10 10 11 12 13 13 13 12 11 11 10 10 10
9 9 9 9 10 10 10 11 11 12 12 13 14 15 16 17 17 16 15 15 15 15 15 15 15 15 14 14 14 14 14 13 12 12 13 15 15 15 13 11 12 13 14 15 16 17 17 14 11 9 9 9 9 9 9 12 14 14 13 13 13 14 14 14 15 15 14 14 13 12 10 9 9 9 9 9 8 9 10 10 10 9 9 8 8 8 8 8 8 8 9 10 10 11 12 13 14 14 14 13 12 11 10
10 9 9 9 9 9 10 10 10 11 11 11 12 13 13 15 16 16 16 15 15 15 15 15 15 15 14 14 14 14 13 13 13 12 12 13 14 16 16 14 13 13 13 15 16 16 17 16 14 12 10 9 9 9 9 12 14 13 13 13 13 13 13 13 14 14 14 13 13 12 11 10 10 10 9 9 8 9 10 10 9 9 9 9 8 8 8 7 7 8 8 9 10 11 12 12 13 14 15 14 13 12 11
12 12 12 11 10 10 10 10 9 9 10 11 11 11 12 13 14 15 15 15 15 15 15 15 15 15 14 14 14 14 14 13 13 13 13 12 13 13 14 14 14 13 14 14 15 16 17 17 17 15 13 10 9 9 8 12 14 13 12 12 12 12 12 12 12 12 13 13 12 12 11 11 11 10 9 8 8 8 8 9 8 8 8 9 9 9 8 8 8 8 9 10 10 11 12 13 13 14 14 15 15 14 13
12 12 13 12 11 11 11 10 10 10 11 11 11 11 11 12 12 13 14 14 14 14 14 14 14 14 14 14 14 15 14 14 13 13 13 13 12 12 13 14 14 14 14 14 15 16 17 17 17 17 14 11 10 9 9 12 13 12 11 10 10 10 10 11 11 11 12 12 12 12 11 12 12 11 9 8 8 8 8 8 8 8 8 9 9 9 9 9 9 10 10 10 11 12 13 13 13 13 13 14 15 15 14
11 11 10 10 11 11 11 10 11 11 10 10 10 10 11 11 11 11 12 13 13 13 13 13 14 14 14 14 14 14 14 14 13 13 13 13 13 13 13 14 15 15 14 14 16 17 17 17 17 17 15 12 10 9 9 11 12 11 10 9 9 9 9 10 10 10 10 11 11 11 11 11 12 11 10 8 8 8 8 7 8 8 9 9 9 9 9 9 10 10 10 10 11 12 13 14 14 13 13 13 14 15 15
11 10 10 9 9 10 10 9 9 9 9 9 9 9 9 9 10 10 11 11 12 13 13 14 14 14 14 14 14 14 15 14 14 14 14 14 15 15 15 15 16 15 15 15 16 17 18 17 17 17 17 12 10 10 11 12 12 10 9 9 9 9 9 9 9 10 10 10 10 11 11 11 11 11 10 9 9 9 8 8 9 9 9 9 8 8 8 8 8 8 8 9 11 12 13 14 14 13 12 13 13 14 14
11 10 10 10 9 9 8 9 8 8 8 8 8 8 9 9 9 9 9 10 11 12 12 12 13 13 14 13 13 14 15 14 15 15 15 16 16 16 16 16 16 16 17 16 16 17 18 18 18 18 19 15 11 9 10 12 13 11 9 9 10 10 10 10 10 10 9 10 10 10 10 11 11 10 10 10 10 9 9 8 9 9 9 8 7 7 7 7 7 7 8 9 10 11 12 13 13 12 12 12 13 13 13
10 10 10 11 11 10 9 9 8 8 8 8 8 8 8 8 8 8 9 9 9 10 11 11 12 12 13 13 13 14 15 15 14 14 14 15 15 15 16 16 16 17 17 17 16 17 17 17 18 19 20 18 14 11 9 10 12 12 11 11 11 11 11 11 11 10 10 10 10 10 10 10 10 10 10 10 10 10 10 9 9 9 8 7 7 7 7 7 8 8 8 9 10 11 12 12 12 12 11 11 12 13 13
10 10 10 11 12 11 10 10 10 9 8 8 8 8 8 8 8 8 9 9 9 9 9 10 10 11 12 12 13 14 14 15 14 14 14 14 14 15 15 15 15 15 16 16 17 17 17 17 17 18 19 18 16 14 12 9 11 12 13 13 12 12 12 12 11 11 11 10 10 11 11 10 10 10 10 11 10 10 10 10 10 9 9 8 8 8 8 8 8 9 9 9 10 11 11 12 12 11 10 10 11 12 13
9 9 9 10 12 12 12 11 11 10 9 9 8 8 8 8 8 8 9 9 9 10 10 9 9 10 11 12 13 13 13 14 14 14 13 14 14 15 15 15 15 14 13 15 16 16 16 16 17 18 18 17 16 15 13 10 9 11 13 14 14 13 13 12 12 12 11 11 11 11 11 11 11 11 11 11 11 11 11 11 10 10 10 9 9 9 9 8 8 8 8 9 9 10 10 11 12 11 10 9 10 11 13
8 8 9 9 11 12 11 11 11 9 9 9 9 8 8 8 8 9 9 9 9 9 10 10 10 10 11 12 14 15 14 14 14 13 14 14 15 15 16 16 14 12 11 13 14 15 15 15 16 16 16 15 15 14 14 11 10 10 11 14 15 14 13 13 12 12 12 12 12 12 12 11 11 11 11 11 11 11 11 11 11 11 11 11 10 10 9 8 8 8 8 8 9 9 9 11 11 11 10 9 9 11 12
8 8 9 9 9 9 10 10 10 10 9 9 9 9 8 8 9 9 9 8 9 9 10 10 10 10 11 12 14 15 14 13 12 12 14 15 15 15 16 15 14 12 12 13 13 12 12 13 14 15 15 14 14 14 14 13 12 11 11 13 15 14 13 13 13 13 12 12 12 12 12 12 11 11 11 12 12 12 12 12 12 12 12 12 11 11 10 9 8 8 8 8 8 8 9 10 11 11 10 9 9 10 11
7 8 8 8 8 8 9 10 10 10 11 10 10 9 9 9 9 9 9 10 10 10 10 10 10 9 10 10 11 11 11 10 10 11 14 15 14 13 13 12 12 13 13 13 12 11 10 11 12 13 13 13 13 14 15 14 13 12 11 13 14 14 13 13 13 13 13 13 13 13 13 12 12 12 12 12 12 13 14 13 13 13 13 13 13 13 12 10 9 8 8 8 8 8 8 9 10 11 10 10 9 9 10
6 7 7 7 7 8 8 9 9 10 11 11 10 10 10 10 10 10 11 12 12 11 11 11 11 11 10 10 9 9 8 9 9 10 12 13 13 11 10 8 8 9 11 12 12 11 10 10 10 11 12 13 14 14 14 13 13 12 12 12 13 14 14 14 14 14 13 13 13 13 13 13 13 13 12 12 12 13 14 14 14 14 14 14 14 13 13 11 10 8 8 8 8 8 8 9 10 11 11 10 10 9 9
5 5 5 5 6 6 6 7 9 10 10 10 10 9 9 9 10 10 11 13 14 14 13 12 12 13 12 11 10 9 9 10 10 10 10 12 12 11 9 8 8 7 8 9 10 10 10 11 11 11 11 12 13 13 12 11 11 11 11 11 12 13 14 14 14 14 14 13 13 13 13 13 13 13 13 13 13 13 14 14 15 15 15 15 15 14 13 12 10 9 8 8 8 8 8 8 9 10 11 11 11 10 10
5 5 5 5 5 6 8 9 10 10 10 9 9 9 9 9 9 9 9 11 13 14 14 13 13 13 13 12 11 10 10 10 10 10 10 10 9 9 8 8 9 8 7 7 8 10 11 12 12 12 13 13 12 10 9 8 9 10 10 10 10 11 12 13 13 13 13 13 13 13 13 13 14 13 13 13 14 14 15 15 15 15 15 15 15 14 13 12 11 10 9 9 9 8 9 9 9 9 10 11 11 11 10
6 6 6 5 4 5 7 9 9 9 9 8 8 8 8 9 9 8 7 8 8 10 12 13 13 13 13 13 11 10 9 9 9 10 10 9 8 7 7 8 10 10 9 9 9 11 12 12 12 12 13 12 11 9 8 7 8 9 9 9 9 9 10 11 10 10 10 12 13 13 13 14 14 14 14 14 15 16 16 17 16 16 16 16 15 15 14 14 13 12 11 10 10 9 9 10 10 10 10 10 11 11 11
6 6 6 6 5 5 5 6 6 7 7 7 7 7 7 8 8 7 6 6 6 7 9 11 12 13 13 13 12 11 10 9 8 9 9 9 9 9 9 9 9 10 10 10 11 12 12 12 12 12 12 11 10 9 8 8 9 9 9 9 9 9 10 10 10 9 8 9 12 14 14 14 15 15 15 16 16 17 17 17 17 17 16 16 16 16 16 15 15 14 14 12 11 11 10 10 10 10 10 10 10 11 11
5 5 5 6 5 5 4 4 5 5 5 5 5 6 6 7 7 7 7 6 6 7 7 9 11 13 14 13 12 11 11 10 9 8 8 8 8 9 9 9 9 10 10 11 11 11 11 11 11 11 11 10 9 8 9 10 10 10 9 9 9 10 10 10 10 9 8 8 10 13 15 16 16 17 17 17 18 18 18 18 17 17 17 17 17 18 17 17 16 16 15 14 13 12 12 11 11 11 11 10 10 11 11
4 4 5 5 5 5 5 4 4 5 5 4 4 4 6 7 7 8 8 7 7 8 8 9 10 11 12 12 11 10 11 11 10 10 9 9 9 9 9 9 9 10 10 10 10 10 10 10 10 10 10 9 9 9 10 11 11 11 10 10 10 10 9 10 11 10 9 8 8 9 12 16 18 19 19 20 20 19 19 18 18 18 18 18 18 18 18 18 17 16 15 15 14 14 13 12 12 11 11 11 10 11 12
4 4 5 5 6 6 5 5 5 5 5 4 3 3 4 5 6 6 7 7 7 8 9 10 10 10 10 10 9 9 9 10 11 11 10 9 10 10 10 9 9 9 9 10 9 9 10 10 10 10 10 9 10 10 11 11 11 11 10 10 10 10 11 12 13 12 12 11 9 8 9 13 17 19 21 21 21 21 20 19 18 18 18 18 19 19 19 18 18 17 16 15 15 14 14 13 13 12 11 11 11 11 12
5 5 5 5 5 5 5 4 4 4 4 3 2 2 3 4 4 4 5 6 6 8 9 11 12 12 11 10 9 8 9 10 10 11 10 10 10 11 10 10 10 9 9 9 9 9 9 9 9 9 9 9 10 10 11 11 11 11 10 9 9 9 11 13 14 14 14 14 12 10 9 10 12 15 19 20 21 21 20 20 19 19 19 18 18 18 18 18 18 17 16 15 15 15 15 15 14 13 12 12 11 11 11
5 5 5 5 5 5 4 3 3 2 2 2 2 2 2 2 2 2 3 5 6 6 7 9 11 12 12 11 10 9 9 10 10 10 10 10 10 10 10 10 10 9 9 9 9 8 8 9 9 9 9 8 9 9 10 11 11 10 9 9 8 8 9 11 12 13 13 13 12 10 9 9 9 10 13 15 17 18 18 19 19 19 19 19 19 18 19 19 19 18 17 16 16 15 15 16 16 15 14 13 12 11 11
5 5 5 5 5 5 4 3 3 3 3 2 2 2 2 2 2 2 3 4 5 5 4 5 7 9 10 10 9 9 9 9 9 9 9 9 9 10 10 10 9 8 8 8 8 8 8 9 9 9 9 8 8 8 9 9 9 9 8 8 8 7 8 9 10 11 11 11 10 9 9 9 9 8 8 9 10 11 12 15 17 19 19 19 19 19 19 20 20 20 19 18 17 16 16 16 16 16 16 15 13 12 12
5 5 5 5 5 5 5 4 4 3 3 3 3 3 3 2 2 2 3 4 5 5 5 4 3 4 5 5 6 7 7 7 7 8 9 9 9 9 10 9 9 9 9 8 8 8 8 9 9 9 9 9 9 8 8 7 7 7 8 8 7 7 7 8 8 9 9 8 8 8 9 9 8 8 7 6 6 6 7 9 13 17 19 19 20 20 20 21 21 21 20 19 18 17 16 16 17 17 17 16 15 14 13
6 5 5 5 5 5 5 4 4 3 3 3 3 3 3 3 3 3 4 4 5 6 7 5 3 2 2 2 2 4 5 6 7 7 8 8 9 9 9 9 9 9 9 9 8 8 8 9 9 9 9 10 9 9 8 6 6 7 7 7 7 7 7 7 7 7 7 6 6 7 8 8 7 7 6 6 6 6 6 6 9 12 16 19 20 21 22 22 22 22 21 20 18 17 16 16 17 17 17 17 16 15 14
7 6 5 5 5 5 4 4 4 3 3 3 2 2 2 3 3 4 4 4 5 6 6 5 3 2 1 1 2 3 3 5 6 7 8 8 8 8 9 9 9 9 9 9 9 9 9 9 9 9 9 9 9 9 8 7 6 7 7 6 6 6 6 6 6 6 6 6 6 6 7 6 6 5 5 5 5 6 6 6 7 8 12 15 18 19 21 21 22 22 21 19 18 16 16 16 17 17 17 17 16 16 16
8 7 6 6 5 5 4 4 4 3 3 3 3 2 2 2 3 4 4 5 5 5 5 4 3 3 4 4 3 4 4 4 6 7 7 8 7 6 6 7 8 8 8 8 8 9 10 10 9 9 8 8 8 8 7 7 7 8 7 6 5 5 5 4 4 4 4 4 5 4 4 3 3 3 4 4 4 5 5 5 6 6 8 10 12 14 15 18 19 20 19 18 17 16 16 16 17 17 17 17 17 17 17
8 8 7 6 5 5 4 4 4 3 3 3 3 3 3 3 3 3 4 5 5 5 5 5 5 5 6 5 4 4 4 5 6 7 6 7 7 6 4 4 5 6 7 7 6 6 8 8 8 7 7 7 7 7 7 7 8 8 7 6 5 4 3 3 3 3 3 3 2 2 1 1 1 2 3 3 3 4 4 4 4 5 5 6 6 7 9 11 14 16 17 16 15 15 15 16 17 17 17 17 17 17 17
8 8 7 6 6 5 5 4 4 4 4 4 4 4 4 4 3 3 3 4 4 5 5 5 5 6 6 5 4 4 4 5 7 7 6 6 7 7 6 5 4 4 4 5 5 5 6 6 6 6 6 6 6 6 6 7 7 7 7 6 5 4 3 3 3 2 2 2 2 2 1 1 0 1 2 3 4 4 4 4 4 4 4 5 5 6 7 9 11 13 14 14 13 13 14 15 15 16 16 16 16 17 17
8 8 7 6 6 5 5 5 4 4 4 4 4 4 4 4 3 3 3 4 4 5 5 5 5 5 5 5 4 4 5 5 6 7 6 6 5 5 5 4 4 3 4 4 4 4 5 6 6 6 6 5 6 6 6 6 6 6 6 5 4 4 3 3 3 2 2 2 2 1 1 1 0 1 3 4 4 4 3 3 3 4 4 4 5 5 6 7 10 12 12 12 12 12 13 14 14 15 15 15 15 15 16
7 7 6 6 6 5 5 5 5 5 5 4 4 4 4 4 4 3 3 4 4 5 5 5 5 6 5 5 5 5 4 5 5 6 5 5 5 4 3 3 3 2 2 3 3 4 5 6 6 6 6 5 5 5 6 6 6 6 5 5 5 4 4 3 3 3 3 2 1 1 1 1 1 2 3 4 4 3 3 3 3 4 4 4 5 6 6 8 10 11 11 12 12 12 13 13 14 14 14 15 14 14 14
6 6 6 5 5 5 5 6 6 6 5 5 4 4 5 5 4 4 4 4 4 5 5 5 6 6 5 5 5 5 4 4 4 5 4 4 5 5 3 2 2 1 1 2 3 3 3 5 7 7 6 5 5 5 5 5 5 5 5 5 5 4 4 3 3 3 2 2 1 0 0 0 0 2 3 3 3 3 3 3 4 4 4 4 5 6 8 9 10 10 11 12 13 13 13 13 14 14 14 14 14 14 13
5 5 5 5 5 5 6 6 6 6 6 6 5 5 5 5 5 5 5 5 5 5 4 5 5 5 5 5 5 5 4 3 4 4 4 4 5 5 4 3 1 2 2 2 3 2 1 4 4 3 4 5 5 5 5 5 5 5 5 5 4 4 3 3 2 2 1 1 1 0 0 0 1 2 2 2 2 3 3 3 4 4 4 4 5 5 6 7 8 8 9 10 11 13 14 14 14 14 14 14 14 14 14
5 5 5 5 5 6 6 6 6 7 7 7 7 6 5 5 5 5 5 5 5 5 5 4 4 4 4 4 4 5 5 4 4 4 5 5 5 5 4 3 3 2 1 1 2 1 2 4 3 2 4 5 4 4 4 4 4 4 4 4 3 3 2 2 1 1 1 1 1 1 1 1 1 2 2 2 2 3 3 3 3 3 4 4 5 5 5 5 6 7 8 9 10 12 13 13 14 14 14 14 14 14 14
6 5 5 6 6 6 6 6 7 8 8 9 9 8 6 6 6 6 6 5 5 6 7 6 4 4 4 4 4 5 5 5 4 4 5 5 5 5 4 4 4 4 4 4 3 1 1 2 2 2 2 3 4 3 3 3 3 3 3 2 2 1 1 1 0 1 1 1 1 1 1 1 2 2 2 3 3 3 3 3 3 4 4 4 5 5 5 5 6 7 8 10 11 11 12 12 12 13 13 13 14 14 14
7 6 6 6 6 6 6 7 8 8 9 9 9 9 8 8 7 7 6 6 6 7 9 7 6 5 5 5 5 5 5 6 5 4 3 4 4 4 3 4 4 4 3 3 3 2 1 1 2 1 2 3 4 4 3 3 3 3 2 1 1 1 1 1 1 1 1 1 1 2 2 2 2 3 3 3 3 3 4 4 4 4 4 4 4 5 5 6 7 8 10 11 12 11 11 11 11 11 12 12 13 13 13
8 7 7 6 6 6 6 6 7 8 8 9 9 9 9 8 8 8 7 7 7 8 8 7 7 7 6 6 6 5 5 6 5 5 5 3 2 3 3 3 3 2 2 2 1 1 1 2 2 1 1 2 2 3 4 4 3 3 3 2 2 2 3 3 2 2 2 2 3 3 3 3 3 3 3 4 4 4 4 5 5 5 4 4 4 5 5 5 6 7 8 9 10 11 12 11 11 10 11 11 11 12 12
8 8 7 7 6 6 5 5 6 7 8 8 9 9 9 8 8 8 8 8 8 8 8 7 8 8 7 7 6 5 5 5 6 6 5 4 3 3 3 3 2 1 1 1 1 1 1 2 2 1 1 1 1 1 2 3 3 3 4 4 3 3 4 4 4 3 3 3 3 3 3 3 3 3 4 4 4 5 5 5 5 4 4 4 4 4 5 5 5 5 5 6 7 10 12 12 11 10 10 10 10 11 11
Wind_Direction
239 238 240 238 237 238 243 251 256 253 243 231 224 222 229 239 247 253 257 257 255 252 248 247 248 249 249 248 245 244 245 247 247 245 244 247 250 248 233 210 201 208 222 238 243 242 240 240 240 239 240 241 242 244 244 243 241 240 241 241 240 238 238 239 240 237 230 220 219 229 244 261 276 285 288 289 289 290 292 297 304 312 319 321 316 307 290 293 295 300 312 328 340 347 351 347 230 216 231 248 254 253 252
236 235 240 240 240 242 250 259 264 263 255 242 233 229 231 238 247 254 259 260 259 257 255 253 252 252 252 252 250 249 247 246 245 245 246 250 252 250 237 234 238 241 240 245 248 247 243 241 239 239 241 242 243 244 244 241 238 236 234 235 235 234 233 238 238 235 227 221 221 227 236 247 262 273 276 281 278 278 287 294 301 309 318 319 313 307 311 308 299 300 310 325 334 341 349 352 319 250 259 274 273 265 258
237 238 247 246 245 247 254 261 265 266 265 260 255 249 244 245 248 251 254 255 255 255 255 252 249 247 246 248 249 250 248 246 243 244 246 250 253 254 255 261 263 255 249 248 249 249 246 240 238 240 242 243 244 245 244 241 238 234 230 231 232 232 232 238 236 231 226 226 231 237 240 243 249 259 268 274 271 271 283 292 299 308 317 314 307 299 306 307 300 298 305 318 323 326 335 345 340 301 272 276 276 269 263
248 252 259 257 254 254 258 262 262 262 261 260 258 255 253 251 251 251 251 251 253 253 250 246 243 240 238 239 244 247 249 248 245 244 247 250 253 256 260 264 261 254 249 248 248 248 248 243 240 240 243 245 246 245 244 241 237 232 228 228 227 227 228 234 232 229 228 233 241 246 247 246 248 257 267 273 273 276 285 292 299 307 316 312 299 288 296 299 296 293 295 297 298 301 311 325 329 315 287 278 273 271 272
258 262 268 266 263 262 265 265 263 260 257 256 256 256 257 257 256 255 254 253 256 258 256 249 243 241 240 239 242 248 252 252 249 247 248 251 253 256 258 257 255 253 250 248 247 244 241 241 241 241 243 246 247 247 245 241 237 232 228 226 224 224 228 231 229 227 230 236 244 249 250 249 254 261 271 276 278 283 290 294 299 307 313 309 295 282 290 290 287 282 276 271 274 281 293 301 305 304 293 284 280 280 282
260 262 268 269 267 266 268 269 265 260 256 256 256 257 258 259 259 258 257 258 261 266 267 261 251 245 245 245 248 252 255 256 254 252 251 252 252 251 250 251 254 255 251 247 245 242 236 235 236 240 242 246 247 247 246 242 237 231 228 225 222 225 230 230 228 226 229 235 243 247 248 252 259 267 274 278 283 287 290 293 297 304 310 306 296 286 289 286 280 274 267 265 271 280 288 290 289 285 284 287 285 284 286
262 261 264 264 263 264 268 270 266 259 254 254 254 254 256 258 259 259 259 260 264 271 275 275 267 255 253 255 256 258 259 260 260 258 254 250 247 245 245 248 254 254 249 245 244 241 233 232 236 240 242 246 248 249 248 243 237 231 227 224 222 225 232 231 228 227 229 234 239 243 245 255 267 276 281 285 287 289 289 290 294 300 305 302 296 290 287 280 277 273 271 272 279 288 294 289 281 274 273 282 289 288 287
262 261 260 256 253 255 262 267 264 258 253 253 253 252 252 255 257 259 259 260 262 268 276 279 278 273 268 266 265 265 266 267 267 261 251 244 239 239 243 249 253 253 246 243 242 240 234 231 235 242 245 248 250 251 250 245 238 231 226 224 221 225 234 234 231 229 230 233 237 242 245 257 273 285 290 289 288 286 286 289 292 297 301 299 293 285 280 278 279 279 278 279 288 300 305 294 279 267 265 276 289 290 290
256 258 258 252 245 245 256 262 260 255 251 254 256 256 255 256 259 260 260 259 259 261 267 274 277 276 273 271 270 271 274 276 272 261 250 241 234 234 241 249 254 251 244 242 241 240 237 230 232 241 247 251 254 254 250 246 238 231 226 223 220 226 237 238 235 231 231 234 238 242 245 256 268 279 285 286 286 285 285 289 294 298 300 298 291 283 279 281 284 286 285 287 294 304 311 300 280 266 266 279 290 292 291
251 254 259 260 252 249 255 257 253 248 249 256 260 262 262 262 263 263 262 261 258 256 259 269 275 275 274 273 273 275 279 279 275 269 259 246 236 231 237 245 248 246 243 242 242 242 240 236 234 239 248 252 255 254 249 243 236 230 225 223 223 228 237 239 237 234 233 236 240 243 246 253 262 271 279 286 291 292 293 296 299 301 300 295 288 283 282 284 288 292 294 297 302 307 309 300 281 269 271 284 293 292 288
252 256 264 277 276 262 258 253 245 240 248 258 264 266 267 267 267 267 265 264 263 262 262 267 271 272 274 274 274 276 280 278 280 280 270 251 236 228 229 234 235 235 238 242 244 244 244 242 241 242 248 252 253 251 247 240 234 229 225 226 228 231 235 237 236 234 235 237 240 244 246 250 258 267 278 289 297 301 301 303 305 305 299 292 286 284 285 287 290 294 299 305 310 311 308 298 282 273 276 286 293 291 282
255 259 265 272 270 263 259 253 242 234 243 254 263 268 269 270 270 269 266 265 266 267 268 266 266 268 270 272 274 277 279 276 279 283 278 255 235 224 222 225 226 226 230 239 244 246 247 247 247 246 248 250 250 247 242 237 232 226 223 229 230 231 231 232 233 233 234 236 239 241 242 246 254 265 276 288 298 303 304 304 306 307 302 293 290 289 289 291 294 298 303 310 315 314 309 299 286 278 278 285 291 289 278
253 258 262 264 264 262 262 265 261 249 241 248 256 264 267 269 270 268 266 265 264 265 266 265 265 265 266 268 273 276 273 269 273 279 280 266 244 226 220 221 223 224 224 232 242 247 249 248 247 245 245 248 248 244 238 233 229 225 224 227 228 227 228 229 231 232 234 236 237 238 240 243 252 264 276 288 296 300 300 298 300 304 306 301 299 298 297 297 298 301 306 314 318 318 312 301 288 280 281 288 292 290 282
250 254 258 260 261 262 266 272 275 272 259 252 254 259 263 265 265 264 263 262 262 261 262 262 263 263 263 263 265 266 266 266 269 273 276 275 266 251 236 227 223 222 222 225 235 244 246 246 245 243 242 245 246 244 240 234 228 224 226 225 225 226 228 231 233 234 235 237 238 238 238 240 248 261 273 284 290 293 293 291 293 297 303 306 307 307 305 302 302 303 307 315 321 323 319 307 291 282 282 288 292 292 290
248 252 255 258 260 261 263 267 273 275 270 264 260 259 257 258 258 258 258 257 258 258 259 259 259 259 259 258 258 260 264 268 271 272 273 275 275 273 264 248 233 223 220 221 226 233 238 242 241 239 239 242 243 242 241 238 233 230 228 227 227 229 232 234 237 238 239 239 239 239 238 237 241 250 261 270 277 282 284 286 288 293 299 303 307 309 309 308 307 307 309 315 321 325 324 316 300 287 280 282 285 288 291
249 251 254 258 260 260 259 259 263 269 271 268 265 257 244 243 248 253 253 253 254 254 255 256 256 256 256 256 256 258 262 268 272 273 273 273 273 272 272 266 253 235 224 220 222 228 232 236 237 237 240 241 241 240 239 237 236 234 231 231 231 233 235 237 239 241 242 242 242 242 242 243 242 244 250 257 263 269 275 280 285 289 294 299 303 307 309 310 311 311 313 315 320 325 326 322 308 291 283 281 279 278 279
259 256 256 258 261 262 260 256 257 261 266 267 264 257 243 232 231 240 247 250 251 251 251 253 254 254 254 254 254 256 260 264 269 272 273 273 271 269 267 267 264 250 233 224 221 224 228 231 233 234 237 238 239 239 238 236 236 235 232 234 235 237 237 238 241 243 245 245 244 243 243 246 249 250 253 258 261 263 266 274 280 286 291 295 300 304 307 310 313 315 316 318 319 322 324 322 313 300 294 289 283 277 272
264 262 259 259 261 262 261 256 254 255 260 263 263 260 254 251 247 243 241 243 245 247 248 250 251 253 253 252 252 254 258 258 258 261 267 269 269 267 264 263 262 256 244 230 222 221 226 228 229 231 234 236 236 236 237 237 237 236 235 236 238 240 241 242 244 246 248 247 247 245 243 244 248 253 256 259 261 262 265 271 277 283 287 292 297 301 304 308 312 314 317 318 318 318 318 317 313 307 303 300 294 286 279
259 262 262 262 262 262 262 257 252 251 253 257 260 262 260 260 260 260 256 250 245 244 245 247 249 250 251 251 252 252 253 252 248 246 250 254 259 263 262 260 259 257 250 236 225 222 226 226 229 233 237 238 237 235 236 238 238 238 238 239 242 244 246 247 249 250 251 251 250 248 247 246 248 251 257 259 261 265 269 274 278 282 285 290 294 297 300 305 308 310 313 316 316 315 313 310 308 306 305 305 303 297 291
263 265 267 268 268 266 265 262 256 251 251 253 258 262 265 265 266 267 267 261 253 247 246 247 247 249 252 253 253 250 247 246 244 243 243 243 248 256 261 262 261 258 252 239 229 224 229 229 231 235 240 241 239 236 237 239 239 239 239 241 244 247 250 252 253 254 255 255 255 253 250 250 253 257 263 265 269 273 278 281 282 281 282 285 289 292 294 299 302 304 306 309 312 312 311 307 304 302 302 303 304 304 301
270 268 266 266 268 270 270 268 264 259 256 257 260 263 265 266 268 269 270 266 260 255 253 252 252 252 252 251 249 245 243 241 240 241 244 247 248 252 262 263 261 258 253 242 231 226 229 228 229 232 236 237 236 235 237 241 240 239 240 242 245 248 252 255 257 258 258 258 256 253 249 249 255 263 267 270 275 281 286 288 287 284 283 282 284 285 288 291 295 297 298 301 305 307 308 308 305 302 300 300 301 303 303
260 259 258 259 263 268 272 271 267 262 260 261 263 264 263 262 260 261 264 264 262 258 256 255 254 251 248 245 243 241 240 237 235 236 240 244 247 251 260 258 255 253 251 243 234 230 228 225 225 227 230 232 233 232 233 238 240 239 240 243 245 248 252 255 258 259 260 259 257 252 247 243 245 251 256 264 272 280 287 290 291 289 287 284 283 282 284 287 288 290 291 294 298 302 304 305 305 303 301 299 299 300 301
255 256 258 260 263 266 267 265 261 257 257 259 261 263 261 258 255 254 254 255 255 253 251 249 248 246 245 242 241 239 238 236 233 233 237 241 244 247 252 252 248 243 241 240 237 235 235 233 230 228 232 234 234 232 230 237 239 240 241 243 245 247 250 253 256 258 260 260 258 254 248 244 241 240 243 253 262 269 276 283 288 290 290 288 286 286 287 288 290 292 293 293 294 296 299 299 301 301 300 299 298 298 299
258 257 259 261 263 264 263 261 258 257 257 257 260 262 261 257 254 253 252 252 252 250 248 246 244 243 243 241 241 240 239 238 236 234 235 236 239 242 246 249 247 241 233 237 239 240 241 242 239 233 228 237 239 235 233 238 240 241 241 243 244 246 248 250 253 256 257 259 259 256 252 249 246 243 241 242 249 258 264 271 279 284 287 289 290 292 292 294 298 302 303 301 298 298 298 297 296 296 296 296 296 296 297
256 255 255 257 260 262 262 260 260 259 258 256 258 260 260 256 253 252 251 251 250 249 247 245 244 243 242 241 241 240 240 241 240 238 238 236 236 237 239 243 245 241 234 236 240 242 241 243 242 238 231 240 243 238 235 240 242 241 240 241 242 243 245 247 250 252 255 256 258 259 257 254 253 254 253 253 255 258 262 266 270 274 280 285 289 290 291 294 299 304 308 307 307 307 307 305 300 295 292 292 293 294 295
258 257 255 256 257 257 257 258 259 258 258 256 254 255 257 254 251 249 249 249 249 248 247 245 244 244 243 242 240 240 240 241 242 241 241 240 237 234 235 237 240 241 238 238 241 241 238 238 239 239 236 243 244 239 239 243 242 238 237 238 239 241 242 244 247 250 253 255 257 260 261 260 259 259 261 269 274 274 271 271 270 270 271 275 277 278 280 285 290 295 301 308 313 316 317 315 310 302 293 289 289 291 293
260 257 255 253 255 257 256 256 256 256 255 255 254 252 252 251 248 245 244 245 246 247 247 245 245 245 244 242 241 240 240 240 241 242 239 239 238 238 238 237 238 238 239 242 242 239 236 237 238 237 236 242 242 237 237 241 239 235 234 237 240 241 242 243 245 248 252 253 256 258 260 262 262 260 259 265 274 279 277 281 280 275 269 268 267 267 271 278 283 290 300 309 315 317 317 318 315 309 297 288 285 288 291
258 255 254 250 251 255 257 254 252 252 253 253 250 248 249 247 246 244 241 241 242 243 243 243 241 240 240 240 241 242 243 243 244 243 241 241 242 243 242 239 236 236 239 244 243 238 235 237 239 237 232 236 239 238 237 239 238 235 235 240 244 247 248 247 246 248 250 252 253 255 258 260 262 262 260 260 265 273 278 284 285 282 275 271 269 269 274 281 287 295 302 308 312 313 313 315 315 310 299 287 283 285 288
254 252 252 250 248 248 252 253 251 249 248 248 248 248 248 245 243 242 239 238 239 240 238 236 235 234 234 235 238 242 244 245 246 246 244 243 243 242 241 238 236 238 243 246 244 239 236 237 238 236 229 228 232 237 241 242 241 239 241 246 251 253 253 252 249 248 248 250 252 254 256 259 261 262 261 259 261 267 274 278 280 281 279 276 276 278 282 284 285 289 293 299 302 305 308 311 313 309 298 286 281 281 282
253 251 250 250 248 246 247 250 252 252 249 246 246 247 248 246 242 238 236 235 235 235 233 231 229 227 227 231 235 239 241 242 241 240 239 240 239 238 237 236 236 240 246 248 245 240 237 235 235 232 228 226 224 226 236 245 247 245 246 249 251 253 253 252 250 249 248 249 251 253 255 257 259 260 260 259 260 264 270 273 275 275 276 277 277 277 277 278 280 283 288 292 296 300 304 309 311 309 299 286 277 275 277
252 250 247 250 250 248 245 247 249 251 249 247 246 247 249 252 249 242 237 233 231 230 229 228 225 223 224 229 233 235 236 236 235 234 233 234 234 233 233 233 235 239 244 247 246 243 238 235 231 228 228 229 227 222 222 239 252 254 251 248 247 246 246 246 245 245 247 250 252 253 254 256 257 258 258 258 260 263 268 271 272 271 270 271 271 271 274 278 283 289 292 295 298 303 308 311 313 312 305 290 279 275 276
251 249 245 248 250 250 246 244 244 245 246 246 246 247 250 253 251 244 236 228 224 221 220 225 226 224 226 231 234 233 232 231 230 229 230 230 230 231 230 229 231 234 237 241 243 241 237 233 229 227 228 234 235 231 229 237 250 256 256 248 243 239 237 237 237 240 243 247 251 253 254 255 255 256 256 256 257 261 266 267 268 269 268 266 265 267 272 280 286 292 296 298 303 309 313 315 316 316 312 298 284 277 276
252 251 248 245 248 249 247 242 239 241 245 247 249 249 249 248 245 239 232 234 231 225 220 222 225 227 228 230 232 231 228 225 224 226 230 230 230 230 228 225 226 227 226 234 235 234 232 229 226 224 224 230 236 240 241 245 247 250 253 248 241 234 231 230 231 233 236 241 245 248 250 251 252 253 253 253 254 256 259 262 264 265 266 266 265 266 270 278 286 292 297 301 306 312 315 316 317 317 315 304 290 281 277
251 251 249 247 245 245 245 242 238 238 241 246 248 249 249 247 246 243 236 234 234 232 230 228 229 229 230 232 234 235 232 226 222 223 229 229 228 228 226 226 223 222 225 230 228 224 222 222 222 220 217 219 228 238 246 249 247 243 243 244 239 232 227 226 227 229 231 234 237 241 243 245 247 249 250 250 251 252 253 256 258 260 262 263 262 262 264 271 282 291 297 301 306 311 314 314 314 315 315 309 296 285 280
246 249 251 250 248 246 245 243 240 239 242 244 245 247 248 246 245 245 242 234 232 233 232 230 229 230 233 237 241 241 237 228 222 224 228 225 223 223 224 226 229 232 231 228 223 218 215 216 218 217 214 212 218 230 239 242 238 234 237 241 238 232 227 226 226 227 229 231 234 236 239 241 244 246 248 249 250 250 250 252 253 254 256 259 261 262 264 266 274 286 295 298 302 307 312 312 312 312 313 311 305 297 289
246 249 250 249 248 246 244 243 242 242 243 243 244 244 245 244 243 243 244 241 238 234 232 229 228 230 234 238 243 241 230 222 224 231 234 228 221 216 214 213 221 229 229 226 221 218 216 219 217 215 213 212 215 221 227 230 231 232 234 238 238 234 229 227 226 227 228 229 232 235 238 240 242 244 246 248 250 251 251 251 252 253 254 258 261 265 267 269 274 282 291 294 297 301 306 308 310 312 313 313 312 309 302
248 251 252 250 245 241 236 237 238 239 241 242 243 243 243 243 243 242 244 249 246 241 234 227 225 228 232 234 237 237 230 223 223 231 237 232 222 211 205 207 211 212 214 217 218 217 216 220 218 213 210 211 214 217 221 227 231 233 234 235 237 237 234 232 231 230 229 230 232 234 237 238 239 241 243 247 250 251 252 252 253 254 255 258 261 263 266 268 270 276 283 288 292 295 298 302 307 311 313 314 313 313 310
246 249 252 259 258 249 240 238 235 234 234 234 238 240 240 241 242 244 247 250 251 247 240 231 225 224 225 227 230 231 228 220 216 220 229 227 217 204 200 203 206 204 198 204 210 212 213 216 215 213 213 215 218 222 226 232 236 237 235 234 234 235 237 237 236 236 236 234 233 234 236 236 237 237 240 243 247 250 251 251 252 254 255 258 261 264 266 266 266 267 271 279 285 289 292 295 300 305 309 312 313 312 311
247 249 252 254 251 245 240 237 233 229 226 227 231 235 236 236 239 245 255 257 256 250 243 236 231 225 219 219 222 225 225 218 210 210 219 219 213 208 211 211 207 201 194 196 204 210 212 214 212 211 214 218 223 228 232 241 246 243 236 233 230 229 230 231 230 231 236 240 239 237 236 237 237 237 238 241 245 249 251 251 252 253 254 257 259 263 266 268 268 267 267 271 275 281 285 290 294 299 304 309 311 311 309
246 246 246 244 241 236 227 225 222 218 216 223 229 233 235 235 235 239 252 259 263 260 249 238 235 233 225 216 215 219 221 221 213 207 210 213 214 216 219 218 211 203 197 196 202 209 211 212 210 210 214 219 226 232 236 245 247 244 236 232 229 226 226 225 223 221 225 239 245 245 242 240 240 240 241 243 247 251 254 254 254 254 255 256 258 261 264 268 270 271 270 270 271 273 278 283 289 294 299 305 308 309 308
234 230 229 228 222 212 202 205 206 202 199 212 227 237 243 244 237 232 236 244 256 262 258 245 241 242 241 226 215 214 217 222 222 216 207 205 207 212 215 217 214 210 204 199 199 202 207 209 209 211 215 220 224 227 230 236 239 238 233 231 229 228 227 226 227 228 230 236 246 251 250 246 244 243 243 245 249 253 257 258 258 257 257 257 258 259 263 266 269 270 271 272 272 272 274 278 283 289 294 300 303 306 305
205 200 202 198 191 184 180 182 182 179 178 186 210 237 250 252 245 235 229 231 241 253 259 253 248 248 248 240 226 213 214 220 226 227 219 202 198 203 207 210 213 213 210 203 197 195 199 203 208 213 217 219 221 223 226 230 231 231 230 230 229 228 228 228 231 235 236 238 242 249 253 251 247 244 243 244 248 251 254 256 257 257 258 257 258 259 261 263 265 266 268 270 272 273 273 275 279 284 290 295 299 302 303
187 182 173 163 161 163 161 159 157 156 155 154 176 225 242 246 247 240 225 221 229 243 251 251 249 248 249 246 234 217 212 217 223 227 224 208 197 197 203 206 211 214 212 210 204 199 196 199 205 211 216 219 224 228 231 232 231 228 227 228 230 231 232 233 234 234 235 235 236 240 248 253 251 247 244 243 245 248 250 252 253 254 255 256 258 259 260 261 262 263 265 267 269 271 272 273 274 278 284 290 294 298 301
173 167 154 146 144 145 147 147 145 141 136 133 150 198 225 229 235 235 225 219 224 234 242 244 241 239 238 236 230 223 218 217 218 219 220 215 206 201 204 207 212 217 218 216 212 205 200 197 200 205 211 217 225 231 233 234 233 229 226 227 229 232 236 236 236 234 233 233 234 237 244 251 255 254 250 247 246 247 248 250 251 252 253 255 256 258 259 261 262 264 265 266 268 270 272 271 270 271 275 282 288 294 298
165 161 154 144 136 133 138 139 134 131 139 150 170 190 206 206 208 219 226 221 217 221 232 236 233 229 225 224 222 221 220 219 216 213 214 215 213 210 207 207 208 211 217 218 214 207 202 196 194 197 203 211 221 229 232 233 231 228 225 226 227 230 234 238 237 235 235 234 234 236 241 244 249 254 256 254 253 253 254 252 251 251 251 253 254 256 258 261 264 266 267 267 269 271 272 271 270 269 269 273 279 286 291
164 158 151 144 138 136 140 141 141 151 169 183 189 192 195 197 193 198 211 213 206 198 196 218 222 218 214 214 215 217 219 218 215 212 211 211 212 213 211 204 198 199 207 213 213 207 202 195 192 192 196 205 214 222 227 228 227 226 225 223 222 222 225 231 234 235 235 236 235 236 238 242 245 248 253 255 256 258 260 259 256 252 250 250 252 253 257 260 263 265 267 268 270 271 273 272 270 269 268 270 273 277 282
157 150 142 136 135 134 135 138 143 153 169 183 190 191 193 194 202 202 194 194 185 173 160 160 175 186 186 194 204 212 215 217 215 213 214 214 215 215 214 206 197 194 198 206 211 209 203 197 193 192 193 198 205 212 218 221 224 226 226 221 216 214 218 224 228 231 233 234 236 238 240 244 248 251 253 254 254 255 258 263 262 258 253 250 249 251 254 257 260 263 265 267 270 272 273 271 270 268 267 268 270 273 276
154 146 138 133 131 130 131 134 137 145 157 172 187 192 188 178 188 199 196 187 174 165 161 151 131 108 114 140 179 202 210 215 217 216 215 215 216 217 216 211 203 196 194 202 212 214 209 205 201 197 196 197 199 203 208 215 223 228 229 223 215 211 212 217 223 227 229 228 230 236 244 250 255 260 263 262 260 258 258 260 265 266 261 255 252 251 252 255 258 261 263 266 270 271 271 269 267 265 265 266 269 272 275
157 150 147 144 139 137 137 137 137 140 147 153 160 165 165 163 171 185 194 191 178 167 164 163 153 129 104 173 197 202 205 211 213 213 214 212 210 211 213 211 207 202 199 204 212 218 219 214 210 207 203 201 201 202 204 212 223 230 232 227 220 211 206 210 217 223 226 224 227 238 249 256 262 267 271 269 267 265 263 262 264 268 271 268 264 261 259 258 259 261 264 267 270 271 269 267 264 263 262 264 266 270 274
166 161 160 158 157 155 153 149 146 143 144 143 143 145 150 148 151 165 182 184 177 169 166 172 175 187 205 210 209 204 199 196 195 201 213 214 210 204 202 204 205 204 202 202 209 216 221 219 215 210 207 206 205 203 202 208 220 228 231 231 227 216 203 199 203 210 218 228 237 244 252 263 272 277 280 279 275 272 271 269 269 272 277 281 280 278 275 272 269 268 269 271 272 271 269 266 264 263 262 263 265 268 272
179 175 173 174 176 177 176 174 164 151 145 142 141 142 143 141 146 162 178 179 176 174 178 185 192 201 213 215 212 205 198 190 186 192 212 216 215 209 198 192 195 197 197 196 197 204 212 214 211 206 204 200 199 200 200 204 213 219 224 226 225 217 200 185 185 192 207 220 229 227 216 241 284 294 289 288 286 285 285 284 283 284 286 287 287 285 283 281 280 279 278 279 278 276 272 268 266 266 266 266 267 270 272
186 182 182 185 186 187 187 191 182 165 154 151 149 146 143 145 151 164 175 182 184 186 194 194 194 198 207 214 215 211 206 197 191 197 221 218 217 217 211 202 196 191 185 185 187 194 200 202 200 196 191 187 184 183 185 193 202 208 210 209 207 200 186 168 167 179 201 215 211 190 164 145 23 323 291 288 286 287 294 297 299 299 296 295 292 288 285 284 285 286 287 287 285 280 275 272 271 270 271 272 273 274 275
185 182 180 182 183 183 184 190 186 175 165 162 159 156 151 153 157 164 167 172 180 190 200 201 197 193 189 197 206 214 217 210 203 203 216 214 210 213 223 221 215 199 179 181 179 182 194 197 194 187 181 174 170 170 172 178 185 189 190 187 182 172 162 153 152 162 182 194 190 173 149 136 144 289 287 284 283 286 292 300 305 308 304 301 297 293 290 289 292 294 294 292 288 283 279 276 274 274 275 276 278 280 280
181 179 178 179 177 176 179 185 191 191 184 179 173 169 165 165 164 162 162 166 174 183 190 195 196 195 193 194 198 202 210 217 214 208 206 205 202 201 213 229 237 232 198 196 194 190 188 189 186 180 170 159 156 161 165 170 172 172 171 169 163 156 151 149 151 159 171 176 168 143 121 117 177 251 272 279 283 287 294 301 309 309 304 300 298 296 295 295 300 305 306 303 299 294 289 285 282 280 279 280 282 283 283
179 181 184 188 183 177 178 184 190 193 193 195 191 185 181 177 170 163 159 161 166 172 177 184 193 198 200 198 196 195 201 214 216 212 212 213 218 226 240 230 221 224 243 238 233 220 190 174 172 170 157 149 151 156 158 157 156 156 157 161 163 164 164 162 161 166 171 174 167 144 60 70 223 245 263 273 280 287 299 306 310 308 302 296 295 297 300 305 310 314 314 313 310 307 303 298 294 290 287 285 283 283 282
179 181 185 186 184 183 189 199 201 200 202 203 202 199 195 187 177 169 163 160 159 161 167 176 188 197 201 199 195 190 187 196 209 214 211 221 227 237 268 264 226 191 200 217 231 238 119 156 163 162 154 150 155 160 158 151 148 148 148 150 151 152 154 158 158 158 171 178 197 227 255 277 264 262 267 277 284 291 299 306 307 303 299 294 291 291 294 302 306 308 308 308 309 310 308 306 304 300 295 290 286 282 280
176 179 183 191 193 189 186 198 204 207 209 208 207 205 203 194 185 178 173 167 163 161 163 168 176 187 194 194 191 189 189 186 203 220 219 223 229 237 251 265 277 286 278 264 257 248 109 153 174 187 155 155 160 162 156 156 154 150 146 140 130 123 121 123 132 159 185 206 224 237 244 260 273 277 289 296 300 302 304 303 300 298 296 293 289 287 286 288 289 292 295 299 301 302 304 305 305 303 300 295 290 285 280
177 179 183 192 197 194 189 192 198 205 209 212 210 207 207 200 194 191 186 181 174 167 161 161 164 172 179 184 186 190 194 194 197 210 229 231 234 239 243 259 279 294 303 313 324 344 117 174 216 211 150 159 171 177 169 169 169 162 155 141 130 124 119 101 132 187 206 230 260 281 289 285 290 297 305 311 313 313 313 311 308 304 299 296 292 288 286 286 287 291 294 297 297 297 297 298 299 298 298 296 293 289 284
186 186 188 192 194 192 185 190 195 201 208 209 207 207 211 205 201 199 197 194 186 175 166 162 163 168 173 177 182 190 196 196 189 186 208 233 242 246 250 254 265 281 302 312 327 343 156 200 223 213 163 170 175 181 193 202 197 189 185 176 187 212 224 244 263 274 281 295 307 310 307 303 306 311 313 315 318 320 319 319 316 312 307 303 299 294 292 291 293 299 303 306 305 302 298 295 293 294 294 294 294 292 289
196 195 195 195 193 191 191 193 196 198 201 201 203 208 213 210 205 202 202 202 197 188 179 173 171 173 176 179 185 192 193 191 188 186 190 204 219 223 225 238 253 269 301 309 327 330 267 241 242 248 219 210 187 175 184 196 206 215 225 233 240 250 254 258 263 271 282 291 300 303 302 303 305 308 310 313 316 317 315 315 315 314 311 307 304 301 299 298 297 299 304 311 312 309 304 300 296 293 291 291 291 291 290
199 200 201 201 200 197 196 199 203 206 206 204 203 207 213 213 209 206 205 205 204 201 196 190 186 185 184 186 191 198 195 187 185 188 194 200 193 187 198 216 232 244 263 274 281 281 272 265 265 268 268 277 254 204 183 178 187 206 218 221 226 239 251 252 251 255 263 276 282 287 288 291 294 297 300 304 306 307 306 306 307 307 306 305 305 304 303 302 302 302 303 305 306 306 305 304 300 294 289 286 286 288 289